TimeEST,TemperatureF,Dew PointF,Humidity,Sea Level PressureIn,VisibilityMPH,Wind Direction,Wind SpeedMPH,Gust SpeedMPH,PrecipitationIn,Events,Conditions,WindDirDegrees,DateUTC
12:53 AM,12.9,8.1,81,29.95,10.0,North,11.5,-,0.00,,Scattered Clouds,360,2014-02-06 05:53:00
1:53 AM,12.0,6.1,77,29.99,10.0,North,9.2,-,N/A,,Clear,360,2014-02-06 06:53:00
2:53 AM,7.0,3.0,84,30.02,10.0,NNW,8.1,-,N/A,,Partly Cloudy,340,2014-02-06 07:53:00
3:53 AM,1.0,-2.9,83,30.06,10.0,North,3.5,-,N/A,,Clear,10,2014-02-06 08:53:00
4:53 AM,6.1,1.0,80,30.11,10.0,North,8.1,-,N/A,,Clear,360,2014-02-06 09:53:00
5:53 AM,-0.9,-2.9,91,30.14,10.0,NNW,3.5,-,N/A,,Clear,340,2014-02-06 10:53:00
6:53 AM,-6.0,-8.0,91,30.18,10.0,NW,4.6,-,N/A,,Partly Cloudy,310,2014-02-06 11:53:00
7:53 AM,-7.1,-9.0,91,30.21,10.0,NW,3.5,-,N/A,,Partly Cloudy,320,2014-02-06 12:53:00
8:53 AM,3.9,1.0,88,30.22,10.0,Calm,Calm,-,N/A,,Scattered Clouds,0,2014-02-06 13:53:00
9:53 AM,10.0,1.0,67,30.23,10.0,NW,9.2,-,N/A,,Partly Cloudy,320,2014-02-06 14:53:00
10:53 AM,12.9,1.9,62,30.23,10.0,NNW,11.5,-,N/A,,Scattered Clouds,330,2014-02-06 15:53:00
11:53 AM,15.1,3.0,59,30.22,10.0,WNW,6.9,-,N/A,,Scattered Clouds,300,2014-02-06 16:53:00
12:53 PM,17.1,1.9,52,30.20,10.0,WNW,8.1,-,N/A,,Scattered Clouds,290,2014-02-06 17:53:00
1:53 PM,18.0,3.0,52,30.20,10.0,West,6.9,-,N/A,,Scattered Clouds,280,2014-02-06 18:53:00
2:53 PM,18.0,3.9,54,30.19,10.0,SW,6.9,-,N/A,,Scattered Clouds,230,2014-02-06 19:53:00
3:53 PM,19.0,5.0,54,30.20,10.0,WSW,6.9,-,N/A,,Mostly Cloudy,240,2014-02-06 20:53:00
4:53 PM,15.1,3.9,61,30.21,10.0,Calm,Calm,-,N/A,,Mostly Cloudy,0,2014-02-06 21:53:00
5:53 PM,8.1,3.0,80,30.21,10.0,Calm,Calm,-,N/A,,Scattered Clouds,0,2014-02-06 22:53:00
6:53 PM,7.0,3.0,84,30.20,10.0,SSE,3.5,-,N/A,,Partly Cloudy,160,2014-02-06 23:53:00
7:53 PM,9.0,5.0,84,30.19,10.0,SSW,3.5,-,N/A,,Scattered Clouds,200,2014-02-07 00:53:00
8:53 PM,12.0,6.1,77,30.18,10.0,SSW,3.5,-,N/A,,Scattered Clouds,200,2014-02-07 01:53:00
9:53 PM,5.0,1.9,87,30.17,10.0,Calm,Calm,-,N/A,,Scattered Clouds,0,2014-02-07 02:53:00
10:53 PM,10.0,5.0,80,30.16,10.0,Calm,Calm,-,N/A,,Scattered Clouds,0,2014-02-07 03:53:00
11:53 PM,9.0,5.0,84,30.16,10.0,Calm,Calm,-,N/A,,Overcast,0,2014-02-07 04:53:00